This demonstration page uses our WeatherBlox Daily Observations layout. Learn more.

Left ArrowRight Arrow

Hourly Observations for October 2, 2021

Temp ( °F °C ) Dew Point ( °F °C ) Humidity (%) Winds ( mph kmh ) Pressure ( in mb ) Visibility ( mi km ) Precip ( " mm )
12:50 am 00:50 Cloudy 57 14 55 13 94 94 W 5 7 30.09 1019 10 16 N/A
12:53 am 00:53 Cloudy 58 14.4 56 13.3 93 93 W 5 7 30.09 1019 10 16 N/A
1:48 am 01:48 Partly Cloudy 55 13 55 13 100 100 WSW 5 7 30.09 1019 9 14 N/A
1:53 am 01:53 Mostly Clear 56 13.3 55 12.8 97 97 W 5 7 30.08 1019 9 14 N/A
2:53 am 02:53 Clear with Mist and Fog 54 12.2 53 11.7 97 97 WNW 7 11 30.08 1019 6 10 N/A
3:33 am 03:33 Mostly Cloudy with Mist and Fog 56 13.3 55 12.8 97 97 WNW 5 7 30.07 1018 6 10 N/A
3:53 am 03:53 Cloudy with Mist and Fog 57 13.9 56 13.3 96 96 WNW 5 7 30.06 1018 6 10 N/A
4:53 am 04:53 Partly Cloudy 57 13.9 57 13.9 100 100 NNW 7 11 30.06 1018 7 11 N/A
5:35 am 05:35 Mostly Cloudy 57 13.9 56 13.3 96 96 NW 6 9 30.07 1018 10 16 N/A
5:53 am 05:53 Cloudy 57 13.9 55 12.8 93 93 NW 6 9 30.07 1018 10 16 N/A
6:53 am 06:53 Cloudy 55 12.8 54 12.2 96 96 NW 6 9 30.08 1019 8 13 N/A
7:53 am 07:53 Cloudy 56 13.3 55 12.8 97 97 NW 6 9 30.08 1019 8 13 N/A
8:06 am 08:06 Cloudy 56 13.3 55 12.8 97 97 NW 6 9 30.08 1019 8 13 N/A
8:48 am 08:48 Cloudy 57 14 55 13 94 94 NNW 7 11 30.08 1019 9 14 N/A
8:53 am 08:53 Cloudy 58 14.4 56 13.3 93 93 NW 8 13 30.08 1019 10 16 N/A
9:53 am 09:53 Cloudy 59 15 56 13.3 90 90 NW 7 11 30.09 1019 10 16 N/A
10:24 am 10:24 Cloudy 60 15.6 56 13.3 86 86 NW 8 13 30.08 1019 10 16 N/A
10:53 am 10:53 Cloudy 61 16.1 56 13.3 84 84 NW 9 15 30.08 1019 10 16 N/A
11:53 am 11:53 Cloudy 63 17.2 57 13.9 81 81 NW 10 17 30.08 1019 10 16 N/A
12:53 pm 12:53 Cloudy 63 17.2 57 13.9 81 81 NNW 14 22 30.08 1019 10 16 N/A
1:53 pm 13:53 Cloudy 63 17.2 58 14.4 84 84 NNW 12 19 30.07 1018 10 16 N/A
2:53 pm 14:53 Cloudy 64 17.8 58 14.4 81 81 N 10 17 30.06 1018 10 16 N/A
3:13 pm 15:13 Cloudy 64 17.8 57 13.9 78 78 N 10 17 30.02 1017 10 16 N/A
3:53 pm 15:53 Cloudy 64 17.8 58 14.4 81 81 NW 12 19 30.05 1018 10 16 N/A
4:15 pm 16:15 Cloudy 66 18.9 58 14.4 75 75 NNW 9 15 30.00 1016 10 16 N/A
4:53 pm 16:53 Mostly Cloudy 67 19.4 58 14.4 73 73 N 8 13 30.03 1017 10 16 N/A
5:53 pm 17:53 Mostly Cloudy 69 20.6 55 12.8 61 61 N 8 13 30.02 1017 10 16 N/A
6:53 pm 18:53 Sunny 67 19.4 54 12.2 63 63 N 7 11 30.02 1017 10 16 N/A
7:53 pm 19:53 Clear 60 15.6 53 11.7 78 78 N 6 9 30.04 1017 10 16 N/A
8:53 pm 20:53 Clear 56 13.3 52 11.1 87 87 N N/A 30.05 1018 9 14 N/A
9:53 pm 21:53 Clear 56 13.3 52 11.1 87 87 W 3 6 30.06 1018 9 14 N/A
10:53 pm 22:53 Clear 53 11.7 50 10 89 89 N N/A 30.06 1018 10 16 N/A
11:53 pm 23:53 Clear 52 11.1 47 8.3 83 83 W 5 7 30.06 1018 7 11 N/A

Powered by AerisWeather